INMARSAT 3-F3

Last updated on Tue Sep 16 2025 00:02:45 GMT+0000 (Coordinated Universal Time)

1 24674U 96070A 25258.22082216 -.00000280 00000+0 00000+0 0 9999 2 24674 9.7198 52.2195 0006880 146.4266 200.2145 1.00003211105158
UTC large
Height (km)
Speed (km/s)
/
Latitude / Longitude
Inclination (degrees)
Orbital Period (minutes)
Azimuth
Elevation
Range (km)
Doppler Factor

Next 0 passes for location: London (51.5072 / 0.1276)

Sorry there are no passes over London.